Weather History for Newport News, VA

Change the Weather History Date:

Wednesday, October 23, 2013

  Actual Average Record
Temperature  
Mean Temperature 58 °F -  
Max Temperature 64 °F 70 °F 84 °F (2007)
Min Temperature 50 °F 51 °F 3 °F (2003)
Degree Days  
Heating Degree Days 7    
Growing Degree Days 8 (Base 50)    
Moisture  
Dew Point 50 °F    
Average Humidity 76    
Maximum Humidity 90    
Minimum Humidity 52    
Precipitation  
Precipitation 0.24 in - - ()
Sea Level Pressure  
Sea Level Pressure 29.72 in    
Wind  
Wind Speed 5 mph (NW)    
Max Wind Speed 14 mph    
Max Gust Speed 22 mph    
Visibility 7 miles    
Events Rain    
Averages and records for this station are not official NWS values.
T = Trace of Precipitation, MM = Missing Value Source: NWS Daily Summary

Daily Weather History Graph

Daily Weather History Graph

Search for Another Location

Airport:

Trip Planner

Search our weather history database for the weather conditions in past years. The results will help you decide how hot, cold, wet, or windy it might be!

Date:

Astronomy

Oct. 23, 2013 Rise Set
Actual Time 7:21 AM EDT 6:18 PM EDT
Civil Twilight 6:55 AM EDT 6:44 PM EDT
Nautical Twilight 6:24 AM EDT 7:15 PM EDT
Astronomical Twilight 5:54 AM EDT 7:45 PM EDT
Moon 9:51 PM EDT (10/23) 11:33 AM EDT (10/23)
Length of Visible Light 11h 49m
Length of Day
10h 56m
Waning Gibbous, 79% of the Moon is Illuminated
Oct 23
Waning Gibbous
Oct 26
Last Quarter
Nov 3
New
Nov 10
First Quarter
Nov 17
Full

Hourly Weather History & Observations

Time (EDT) Temp. Dew Point Humidity Pressure Visibility Wind Dir Wind Speed Gust Speed Precip Events Conditions
12:54 AM 59.0 °F 55.0 °F 87% 29.80 in 6.0 mi SW 4.6 mph - N/A   Scattered Clouds
1:54 AM 61.0 °F 55.9 °F 83% 29.78 in 7.0 mi SSW 4.6 mph - N/A   Mostly Cloudy
2:54 AM 60.1 °F 57.0 °F 90% 29.75 in 6.0 mi SW 4.6 mph - N/A   Scattered Clouds
3:54 AM 60.1 °F 55.9 °F 86% 29.73 in 4.0 mi Calm Calm - N/A   Overcast
4:27 AM 59.0 °F 55.4 °F 88% 29.72 in 2.5 mi Calm Calm - N/A   Overcast
4:37 AM 59.0 °F 55.4 °F 88% 29.72 in 4.0 mi Calm Calm - N/A   Overcast
4:54 AM 59.0 °F 55.0 °F 87% 29.72 in 3.0 mi Calm Calm - N/A   Overcast
4:57 AM 59.0 °F 55.4 °F 88% 29.72 in 1.5 mi Calm Calm - N/A   Overcast
5:05 AM 59.0 °F 55.4 °F 88% 29.72 in 0.8 mi Calm Calm - N/A   Overcast
5:10 AM 59.0 °F 55.4 °F 88% 29.72 in 2.5 mi South 4.6 mph - N/A   Overcast
5:17 AM 60.8 °F 55.4 °F 82% 29.72 in 4.0 mi South 5.8 mph - N/A   Overcast
5:24 AM 60.8 °F 57.2 °F 88% 29.72 in 5.0 mi South 5.8 mph - N/A   Overcast
6:11 AM 62.6 °F 57.2 °F 82% 29.72 in 6.0 mi South 4.6 mph - N/A   Haze
6:21 AM 62.6 °F 57.2 °F 82% 29.72 in 5.0 mi South 6.9 mph - N/A   Haze
6:52 AM 60.8 °F 55.4 °F 82% 29.70 in 4.0 mi NNE 4.6 mph - N/A   Mostly Cloudy
6:54 AM 60.1 °F 55.9 °F 86% 29.70 in 4.0 mi North 5.8 mph - N/A   Mostly Cloudy
7:03 AM 60.8 °F 55.4 °F 82% 29.70 in 5.0 mi NNE 8.1 mph - N/A   Haze
7:54 AM 59.0 °F 48.0 °F 67% 29.70 in 10.0 mi North 4.6 mph - 0.00 in Rain Light Rain
8:54 AM 59.0 °F 46.0 °F 62% 29.69 in 10.0 mi NNE 6.9 mph 21.9 mph 0.00 in   Overcast
9:45 AM 53.6 °F 48.2 °F 82% 29.69 in 2.5 mi NNE 5.8 mph - 0.04 in Rain Rain
9:54 AM 53.1 °F 48.0 °F 83% 29.69 in 2.5 mi NNW 8.1 mph - 0.07 in Rain Rain
9:59 AM 53.6 °F 48.2 °F 82% 29.70 in 1.8 mi NNW 6.9 mph - 0.04 in Rain Heavy Rain
10:10 AM 53.6 °F 48.2 °F 82% 29.69 in 1.5 mi NNW 4.6 mph - 0.10 in Rain Rain
10:17 AM 53.6 °F 48.2 °F 82% 29.70 in 3.0 mi NW 5.8 mph - 0.12 in Rain Light Rain
10:25 AM 53.6 °F 48.2 °F 82% 29.69 in 2.5 mi North 4.6 mph - 0.13 in Rain Light Rain
10:54 AM 54.0 °F 48.9 °F 83% 29.69 in 2.5 mi North 6.9 mph - 0.16 in Rain Light Rain
11:01 AM 53.6 °F 48.2 °F 82% 29.69 in 7.0 mi North 9.2 mph - 0.01 in Rain Light Rain
11:13 AM 53.6 °F 48.2 °F 82% 29.69 in 10.0 mi NNW 8.1 mph - 0.01 in Rain Light Rain
11:33 AM 53.6 °F 48.2 °F 82% 29.68 in 10.0 mi NNE 3.5 mph - 0.01 in Rain Light Rain
11:54 AM 55.9 °F 48.0 °F 75% 29.68 in 10.0 mi NNE 4.6 mph - 0.01 in   Overcast
12:28 PM 57.2 °F 48.2 °F 72% 29.69 in 10.0 mi NNW 10.4 mph - N/A   Mostly Cloudy
12:37 PM 57.2 °F 48.2 °F 72% 29.69 in 10.0 mi NW 9.2 mph - N/A   Mostly Cloudy
12:54 PM 57.9 °F 48.9 °F 72% 29.69 in 10.0 mi NW 9.2 mph - N/A   Overcast
1:54 PM 60.1 °F 48.0 °F 64% 29.66 in 10.0 mi NW 6.9 mph - N/A   Mostly Cloudy
2:17 PM 57.2 °F 46.4 °F 67% 29.66 in 10.0 mi NW 4.6 mph - N/A   Partly Cloudy
2:54 PM 60.1 °F 46.9 °F 62% 29.67 in 10.0 mi West 11.5 mph - N/A   Mostly Cloudy
3:07 PM 60.8 °F 48.2 °F 63% 29.67 in 10.0 mi NW 9.2 mph 17.3 mph N/A   Scattered Clouds
3:54 PM 63.0 °F 46.0 °F 54% 29.70 in 10.0 mi WNW 10.4 mph 19.6 mph N/A   Clear
4:54 PM 63.0 °F 45.0 °F 52% 29.70 in 10.0 mi WNW 13.8 mph 18.4 mph N/A   Scattered Clouds
5:54 PM 61.0 °F 44.1 °F 54% 29.73 in 10.0 mi West 10.4 mph - N/A   Clear
6:54 PM 57.9 °F 44.1 °F 60% 29.76 in 10.0 mi WNW 5.8 mph - N/A   Partly Cloudy
7:54 PM 57.0 °F 42.1 °F 57% 29.79 in 10.0 mi WNW 4.6 mph - N/A   Mostly Cloudy
8:54 PM 57.0 °F 42.1 °F 57% 29.82 in 10.0 mi NW 12.7 mph 16.1 mph N/A   Partly Cloudy
9:54 PM 53.1 °F 43.0 °F 69% 29.86 in 10.0 mi North 10.4 mph - N/A   Partly Cloudy
10:54 PM 53.1 °F 37.9 °F 57% 29.90 in 10.0 mi North 11.5 mph - N/A   Clear
11:54 PM 50.0 °F 37.9 °F 63% 29.93 in 10.0 mi NW 4.6 mph - N/A   Clear